| time (UTC) | temp F | wind direction | speed MPH | gust MPH | rain 1hr in | rain 24hr in | rain mn in | humidity % | barometer mb |
| 20260509203037 | 68 | 222 | 2.0 | 17.0 | 0.00 | 0.00 | 0.00 | 61 | 1009.1 |
| 20260509201536 | 68 | 225 | 8.0 | 14.0 | 0.00 | 0.00 | 0.00 | 60 | 1009.1 |
| 20260509200036 | 68 | 140 | 7.0 | 14.0 | 0.00 | 0.00 | 0.00 | 62 | 1009.3 |
| 20260509194534 | 68 | 209 | 7.0 | 17.0 | 0.00 | 0.00 | 0.00 | 63 | 1009.4 |
| 20260509193029 | 67 | 217 | 4.0 | 15.0 | 0.00 | 0.00 | 0.00 | 66 | 1009.6 |
| 20260509191528 | 66 | 238 | 3.0 | 12.0 | 0.00 | 0.00 | 0.00 | 69 | 1009.8 |
| 20260509190025 | 66 | 215 | 5.0 | 11.0 | 0.00 | 0.00 | 0.00 | 71 | 1009.9 |
| 20260509184533 | 65 | 207 | 7.0 | 15.0 | 0.00 | 0.00 | 0.00 | 70 | 1010.0 |
| 20260509183023 | 66 | 229 | 3.0 | 11.0 | 0.00 | 0.00 | 0.00 | 73 | 1009.9 |
| 20260509181519 | 64 | 217 | 3.0 | 8.0 | 0.00 | 0.00 | 0.00 | 75 | 1010.2 |
| 20260509180023 | 64 | 197 | 5.0 | 12.0 | 0.00 | 0.00 | 0.00 | 74 | 1010.3 |
| 20260509174516 | 63 | 196 | 4.0 | 12.0 | 0.00 | 0.00 | 0.00 | 77 | 1010.4 |
| 20260509173046 | 63 | 156 | 5.0 | 11.0 | 0.00 | 0.00 | 0.00 | 77 | 1010.5 |
| 20260509171522 | 62 | 202 | 3.0 | 10.0 | 0.00 | 0.00 | 0.00 | 79 | 1010.4 |
| 20260509170014 | 61 | 236 | 5.0 | 10.0 | 0.00 | 0.00 | 0.00 | 80 | 1010.4 |
| 20260509164508 | 61 | 225 | 4.0 | 9.0 | 0.00 | 0.00 | 0.00 | 81 | 1010.7 |
| 20260509163008 | 60 | 221 | 4.0 | 12.0 | 0.00 | 0.00 | 0.00 | 81 | 1010.7 |
| 20260509161504 | 60 | 246 | 5.0 | 11.0 | 0.00 | 0.00 | 0.00 | 83 | 1010.6 |
| 20260509154558 | 58 | 215 | 2.0 | 9.0 | 0.00 | 0.00 | 0.00 | 87 | 1010.4 |
| 20260509153056 | 57 | 240 | 5.0 | 11.0 | 0.00 | 0.00 | 0.00 | 87 | 1010.3 |
| 20260509151615 | 57 | 227 | 4.0 | 9.0 | 0.00 | 0.00 | 0.00 | 88 | 1010.2 |
| 20260509150053 | 56 | 202 | 3.0 | 10.0 | 0.00 | 0.00 | 0.00 | 89 | 1010.1 |
| 20260509144552 | 56 | 192 | 5.0 | 11.0 | 0.00 | 0.00 | 0.00 | 89 | 1010.1 |
| 20260509143057 | 55 | 181 | 5.0 | 11.0 | 0.00 | 0.00 | 0.00 | 88 | 1010.1 |
| 20260509141551 | 55 | 207 | 5.0 | 9.0 | 0.00 | 0.00 | 0.00 | 87 | 1010.1 |
| 20260509140046 | 54 | 205 | 5.0 | 9.0 | 0.00 | 0.00 | 0.00 | 87 | 1010.1 |
| 20260509134546 | 53 | 191 | 3.0 | 7.0 | 0.00 | 0.00 | 0.00 | 87 | 1010.2 |
| 20260509133044 | 53 | 189 | 2.0 | 6.0 | 0.00 | 0.00 | 0.00 | 87 | 1010.3 |
| 20260509131555 | 52 | 211 | 0.0 | 5.0 | 0.00 | 0.00 | 0.00 | 87 | 1010.2 |
| 20260509130100 | 52 | 200 | 1.0 | 5.0 | 0.00 | 0.00 | 0.00 | 87 | 1009.8 |
| 20260509124541 | 52 | 152 | 2.0 | 6.0 | 0.00 | 0.00 | 0.00 | 87 | 1009.9 |
| 20260509123102 | 52 | 157 | 1.0 | 5.0 | 0.00 | 0.00 | 0.00 | 87 | 1009.9 |
| 20260509121539 | 52 | 166 | 2.0 | 7.0 | 0.00 | 0.00 | 0.00 | 87 | 1010.0 |
| 20260509120038 | 52 | 219 | 1.0 | 6.0 | 0.00 | 0.00 | 0.00 | 87 | 1010.3 |
| 20260509114532 | 52 | 205 | 1.0 | 6.0 | 0.00 | 0.00 | 0.00 | 87 | 1010.3 |
| 20260509113031 | 52 | 193 | 1.0 | 5.0 | 0.00 | 0.00 | 0.00 | 87 | 1010.4 |
| 20260509111630 | 52 | 150 | 2.0 | 7.0 | 0.00 | 0.00 | 0.00 | 87 | 1010.3 |
| 20260509110029 | 52 | 236 | 2.0 | 7.0 | 0.00 | 0.00 | 0.00 | 87 | 1010.4 |
| 20260509104528 | 52 | 214 | 2.0 | 9.0 | 0.00 | 0.00 | 0.00 | 87 | 1010.4 |
| 20260509103025 | 52 | 166 | 4.0 | 8.0 | 0.00 | 0.00 | 0.00 | 87 | 1010.1 |
| 20260509101534 | 52 | 191 | 5.0 | 12.0 | 0.00 | 0.00 | 0.00 | 87 | 1010.2 |
| 20260509100022 | 51 | 204 | 2.0 | 6.0 | 0.00 | 0.00 | 0.00 | 87 | 1010.2 |
| 20260509094530 | 51 | 178 | 1.0 | 6.0 | 0.00 | 0.00 | 0.00 | 87 | 1010.3 |
| 20260509093020 | 51 | 173 | 1.0 | 4.0 | 0.00 | 0.00 | 0.00 | 87 | 1010.3 |
| 20260509091518 | 51 | 149 | 1.0 | 5.0 | 0.00 | 0.00 | 0.00 | 88 | 1010.5 |
| 20260509090018 | 51 | 185 | 0.0 | 3.0 | 0.00 | 0.00 | 0.00 | 88 | 1010.6 |
| 20260509084519 | 51 | 182 | 1.0 | 4.0 | 0.00 | 0.00 | 0.00 | 88 | 1010.7 |
| 20260509083015 | 51 | 194 | 0.0 | 5.0 | 0.00 | 0.00 | 0.00 | 88 | 1011.0 |
| 20260509081514 | 51 | 176 | 1.0 | 5.0 | 0.00 | 0.00 | 0.00 | 88 | 1011.0 |
| 20260509080013 | 51 | 153 | 2.0 | 5.0 | 0.00 | 0.00 | 0.00 | 88 | 1011.0 |
| 20260509074512 | 51 | 150 | 0.0 | 3.0 | 0.00 | 0.00 | 0.00 | 88 | 1011.1 |
| 20260509073011 | 51 | 143 | 0.0 | 2.0 | 0.00 | 0.00 | 0.00 | 88 | 1011.1 |
| 20260509071510 | 51 | 141 | 0.0 | 0.0 | 0.00 | 0.00 | 0.00 | 88 | 1011.1 |
| 20260509070008 | 51 | 52 | 0.0 | 0.0 | 0.00 | 0.00 | 0.00 | 88 | 1011.3 |
| 20260509064508 | 51 | 52 | 0.0 | 0.0 | 0.00 | 0.00 | 0.00 | 88 | 1011.4 |
| 20260509063007 | 51 | 52 | 0.0 | 0.0 | 0.00 | 0.00 | 0.00 | 88 | 1011.5 |
| 20260509061512 | 51 | 52 | 0.0 | 0.0 | 0.00 | 0.00 | 0.00 | 88 | 1011.6 |
| 20260509060003 | 51 | 52 | 0.0 | 1.0 | 0.00 | 0.00 | 0.00 | 88 | 1011.8 |
| 20260509054502 | 51 | 51 | 0.0 | 0.0 | 0.00 | 0.00 | 0.00 | 88 | 1011.9 |
| 20260509053003 | 51 | 52 | 0.0 | 1.0 | 0.00 | 0.00 | 0.00 | 88 | 1012.0 |
| 20260509051501 | 51 | 34 | 0.0 | 0.0 | 0.00 | 0.00 | 0.00 | 88 | 1012.0 |
| 20260509050003 | 51 | 34 | 0.0 | 0.0 | 0.00 | 0.00 | 0.00 | 89 | 1012.1 |
| 20260509044616 | 51 | 34 | 0.0 | 0.0 | 0.00 | 0.00 | 0.00 | 89 | 1012.0 |
| 20260509043059 | 51 | 34 | 0.0 | 0.0 | 0.00 | 0.00 | 0.00 | 89 | 1011.9 |
| 20260509041559 | 51 | 34 | 0.0 | 0.0 | 0.00 | 0.00 | 0.00 | 89 | 1012.2 |
| 20260509040054 | 51 | 34 | 0.0 | 0.0 | 0.00 | 0.00 | 0.00 | 89 | 1012.3 |
| 20260509034555 | 51 | 34 | 0.0 | 0.0 | 0.00 | 0.00 | 0.00 | 89 | 1012.3 |
| 20260509033054 | 52 | 34 | 0.0 | 0.0 | 0.00 | 0.00 | 0.00 | 89 | 1012.4 |
| 20260509031606 | 52 | 34 | 0.0 | 0.0 | 0.00 | 0.00 | 0.00 | 89 | 1012.5 |
| 20260509030052 | 52 | 35 | 0.0 | 0.0 | 0.00 | 0.00 | 0.00 | 89 | 1012.7 |
| 20260509024552 | 52 | 35 | 0.0 | 0.0 | 0.00 | 0.00 | 0.00 | 89 | 1012.6 |
| 20260509023103 | 52 | 35 | 0.0 | 0.0 | 0.00 | 0.00 | 0.00 | 89 | 1012.5 |
| 20260509021552 | 52 | 35 | 0.0 | 0.0 | 0.00 | 0.00 | 0.00 | 89 | 1012.6 |
| 20260509020053 | 53 | 35 | 0.0 | 0.0 | 0.00 | 0.00 | 0.00 | 89 | 1012.8 |
| 20260509014551 | 53 | 35 | 0.0 | 0.0 | 0.00 | 0.00 | 0.00 | 88 | 1012.7 |
| 20260509013050 | 53 | 35 | 0.0 | 4.0 | 0.00 | 0.00 | 0.00 | 87 | 1012.7 |
| 20260509011549 | 54 | 168 | 0.0 | 0.0 | 0.00 | 0.00 | 0.00 | 87 | 1012.7 |
| 20260509010050 | 54 | 176 | 0.0 | 0.0 | 0.00 | 0.00 | 0.00 | 86 | 1012.5 |
| 20260509004550 | 55 | 176 | 0.0 | 2.0 | 0.00 | 0.00 | 0.00 | 84 | 1012.4 |
| 20260509003050 | 56 | 202 | 0.0 | 0.0 | 0.00 | 0.00 | 0.00 | 81 | 1012.4 |
| 20260509001547 | 58 | 221 | 0.0 | 0.0 | 0.00 | 0.00 | 0.00 | 74 | 1012.2 |
| 20260509000047 | 60 | 221 | 0.0 | 0.0 | 0.00 | 0.00 | 0.00 | 66 | 1012.1 |
| 20260508234550 | 61 | 202 | 0.0 | 6.0 | 0.00 | 0.00 | 0.00 | 57 | 1012.0 |
| 20260508233050 | 62 | 211 | 4.0 | 8.0 | 0.00 | 0.00 | 0.00 | 55 | 1012.0 |
| 20260508231545 | 62 | 253 | 4.0 | 11.0 | 0.00 | 0.00 | 0.00 | 54 | 1012.2 |
| 20260508230112 | 63 | 214 | 2.0 | 7.0 | 0.00 | 0.00 | 0.00 | 52 | 1011.9 |
| 20260508224549 | 63 | 237 | 1.0 | 8.0 | 0.00 | 0.00 | 0.00 | 55 | 1011.9 |
| 20260508223044 | 63 | 197 | 0.0 | 7.0 | 0.00 | 0.00 | 0.00 | 52 | 1011.8 |
| 20260508221542 | 63 | 215 | 1.0 | 6.0 | 0.00 | 0.00 | 0.00 | 53 | 1011.8 |
| 20260508220110 | 64 | 209 | 2.0 | 7.0 | 0.00 | 0.00 | 0.00 | 50 | 1011.8 |
| 20260508214543 | 64 | 175 | 2.0 | 8.0 | 0.00 | 0.00 | 0.00 | 50 | 1011.8 |
| 20260508213041 | 64 | 202 | 2.0 | 6.0 | 0.00 | 0.00 | 0.00 | 49 | 1011.7 |
| 20260508211546 | 64 | 202 | 4.0 | 12.0 | 0.00 | 0.00 | 0.00 | 49 | 1011.9 |
| 20260508210039 | 64 | 213 | 4.0 | 12.0 | 0.00 | 0.00 | 0.00 | 49 | 1012.0 |
| 20260508204538 | 64 | 225 | 4.0 | 11.0 | 0.00 | 0.00 | 0.00 | 49 | 1012.3 |